Location: Anaheim
(33.8350°N, 117.9140°W)
Time: 23:20:06
(UTC-07:00)

Amateur Radio Satellites - All Passes

Search period start: 23 March 2017 22:50
Search period end: 24 March 2017 22:50
Location: Anaheim, 33.8350°N, 117.9140°W

Satellite Date Start Highest point End Downlink Frequencies (MHz)
Time Altitude Azimuth
AO-85 23 Mar 22:51:28 22:54:23 17° 308° (NW) 22:57:11 145.980
SPROUT 23 Mar 23:25:05 23:27:15 14° 67° (ENE) 23:29:25 437.525
TIGRISAT 23 Mar 23:35:59 23:40:01 35° 288° (WNW) 23:43:57 435.000
LO-87 23 Mar 23:44:16 23:47:24 29° 263° (W) 23:50:35 145.935 - 145.965
POLYITAN 1 23 Mar 23:44:39 23:47:38 19° 95° (E) 23:50:35 437.675
UNISAT 6 23 Mar 23:45:31 23:49:11 26° 290° (WNW) 23:52:46 437.425
BEESAT 3 23 Mar 23:45:42 23:49:21 37° 303° (WNW) 23:53:03 437.485
QB50P2 23 Mar 23:48:47 23:52:09 23° 96° (E) 23:55:29 145.880/145.840
VELOX 1 23 Mar 23:51:50 23:55:48 34° 72° (ENE) 23:59:47 145.980
BEESAT 2 23 Mar 23:54:06 23:58:01 87° 297° (WNW) 00:02:01 435.950
ESTCUBE 1 24 Mar 00:02:13 00:06:32 48° 260° (W) 00:10:51 437.505/2401.250
SO-50 24 Mar 00:03:18 00:06:47 21° 52° (NE) 00:10:13 436.795
DUCHIFAT 1 24 Mar 00:05:31 00:09:06 27° 97° (E) 00:12:39 145.980
FO-29 24 Mar 00:14:05 00:19:35 38° 291° (WNW) 00:24:34 435.910
UKube-1 24 Mar 00:25:53 00:29:15 23° 69° (ENE) 00:32:38 .
BUGSAT 1 24 Mar 00:34:32 00:37:25 18° 95° (E) 00:40:16 437.445
AIST 2D 24 Mar 00:38:58 00:42:10 34° 286° (WNW) 00:45:20 435.315
NANOSAT C BR1 24 Mar 00:49:25 00:53:39 73° 283° (WNW) 00:57:49 145.865
RS-15 24 Mar 00:52:00 01:01:28 28° 258° (WSW) 01:10:39 29.354- 29.394
EO-79 24 Mar 00:52:06 00:56:17 61° 284° (WNW) 01:00:25 145.935-145.965
50 SAT 24 Mar 00:55:34 00:58:55 53° 260° (W) 01:02:18 437.505
SPROUT 24 Mar 00:58:41 01:02:45 42° 261° (W) 01:06:51 437.525
DX 1 24 Mar 01:14:36 01:18:52 62° 259° (WSW) 01:23:12 434.975-435.025
POLYITAN 1 24 Mar 01:19:45 01:23:23 28° 289° (WNW) 01:26:59 437.675
QB50P2 24 Mar 01:24:27 01:27:49 23° 290° (WNW) 01:31:10 145.880/145.840
VELOX 1 24 Mar 01:29:27 01:32:17 17° 266° (W) 01:35:09 145.980
DUCHIFAT 1 24 Mar 01:41:31 01:44:34 20° 291° (WNW) 01:47:35 145.980
SO-50 24 Mar 01:43:13 01:47:16 33° 247° (WSW) 01:51:18 436.795
UKube-1 24 Mar 02:01:36 02:05:07 25° 263° (W) 02:08:40 .
BUGSAT 1 24 Mar 02:09:10 02:12:45 28° 289° (WNW) 02:16:17 437.445
Gurwin Techsat 1B 24 Mar 02:18:57 02:23:59 42° 99° (E) 02:29:00 435.225
Oscar 19 24 Mar 02:27:53 02:33:04 84° 284° (WNW) 02:38:14 437.125/150
BEESAT 24 Mar 02:34:47 02:39:19 44° 72° (ENE) 02:43:50 436.000
ITUPSAT 1 24 Mar 02:48:48 02:53:31 62° 75° (ENE) 02:58:16 437.325
O/OREOS (USA 219) 24 Mar 02:50:52 02:54:03 18° 61° (ENE) 02:57:13 437.305
AO-7 24 Mar 03:07:53 03:13:38 20° 95° (E) 03:19:20 .
MOZHAYETS 4 24 Mar 03:17:24 03:21:49 47° 74° (ENE) 03:26:14
KKS-1 24 Mar 03:23:29 03:24:19 10° 65° (ENE) 03:25:09 437.445
Tancredo 1 24 Mar 03:31:35 03:32:19 11° 27° (NNE) 03:33:04 437.200
Gurwin Techsat 1B 24 Mar 03:59:45 04:03:35 20° 293° (WNW) 04:07:24 435.225
CUBESAT XI-V 24 Mar 04:02:55 04:06:25 22° 70° (ENE) 04:09:55 437.345
STARS 24 Mar 04:06:08 04:08:25 14° 66° (ENE) 04:10:42 437.465
ITAMSAT 1 24 Mar 04:08:31 04:13:43 80° 103° (ESE) 04:18:53 435.822/435.867
BEESAT 24 Mar 04:14:25 04:17:14 15° 266° (W) 04:20:03 436.000
O/OREOS (USA 219) 24 Mar 04:29:20 04:33:33 36° 256° (WSW) 04:37:45 437.305
ITUPSAT 1 24 Mar 04:30:34 04:31:40 11° 268° (W) 04:32:47 437.325
ISS 24 Mar 04:53:04 04:56:18 50° 41° (NE) 04:59:30 437.550
KKS-1 24 Mar 04:55:53 05:00:17 61° 259° (W) 05:04:43 437.445
MOZHAYETS 4 24 Mar 04:57:00 04:59:09 13° 267° (W) 05:01:20
AO-7 24 Mar 04:58:41 05:06:56 72° 290° (WNW) 05:15:09 .
Tancredo 1 24 Mar 05:05:41 05:08:54 84° 41° (NE) 05:12:07 437.200
M-CUBED/EXP-1 PRIME 24 Mar 05:23:16 05:25:43 18° 63° (ENE) 05:28:17 437.505
CUBESAT XI-V 24 Mar 05:39:37 05:43:35 29° 263° (W) 05:47:34 437.345
STARS 24 Mar 05:40:06 05:44:19 44° 260° (W) 05:48:34 437.465
AO-85 24 Mar 05:46:20 05:47:33 11° 49° (NE) 05:48:46 145.980
ITAMSAT 1 24 Mar 05:51:19 05:52:27 11° 298° (WNW) 05:53:33 435.822/435.867
XW-2D 24 Mar 06:11:35 06:14:10 18° 95° (E) 06:16:45 145.860 - 145.880
XW-2B 24 Mar 06:17:14 06:20:04 20° 96° (E) 06:22:53 145.730 - 145.750
NUDT-PHONESAT 24 Mar 06:21:06 06:23:38 18° 95° (E) 06:26:09 437.300
DOVE 4 24 Mar 06:23:41 06:28:44 44° 98° (E) 06:33:41 437.250
KAITUO 1B 24 Mar 06:24:40 06:27:25 20° 96° (E) 06:30:10 145.475/437.950
XW-2C 24 Mar 06:26:56 06:30:10 27° 97° (E) 06:33:24 145.795 - 145.815
ISS 24 Mar 06:31:18 06:32:24 11° 234° (SW) 06:33:31 437.550
AO-7 24 Mar 06:54:49 06:58:14 13° 308° (NW) 07:01:40 .
M-CUBED/EXP-1 PRIME 24 Mar 06:57:07 06:59:58 23° 260° (W) 07:03:00 437.505
STRAND 1 24 Mar 07:02:06 07:06:56 43° 72° (ENE) 07:11:47 437.568
XW-2A 24 Mar 07:16:39 07:18:04 12° 94° (E) 07:19:28 145.665 - 145.685
LilacSat-2 24 Mar 07:16:59 07:20:39 52° 284° (WNW) 07:24:18 437.200
CUTE-I 24 Mar 07:17:44 07:23:07 87° 284° (WNW) 07:28:27 437.470
XW-2F 24 Mar 07:20:33 07:24:09 50° 284° (WNW) 07:27:46 145.980 - 146.000
CUTE 1.7 + AOD 2 24 Mar 07:21:26 07:23:36 14° 93° (E) 07:25:46 437.475
AO-85 24 Mar 07:24:20 07:28:12 55° 244° (WSW) 07:32:14 145.980
NO-84 24 Mar 07:29:09 07:32:02 87° 318° (NW) 07:34:52 435.350 FM
XW-2D 24 Mar 07:45:20 07:48:17 22° 288° (WNW) 07:51:13 145.860 - 145.880
YUBILEINY 24 Mar 07:45:37 07:54:01 53° 90° (E) 08:02:23 435.215
XW-2B 24 Mar 07:51:22 07:54:08 20° 289° (WNW) 07:56:52 145.730 - 145.750
HO-68 24 Mar 07:53:45 08:00:29 43° 100° (E) 08:07:12 435.675
NUDT-PHONESAT 24 Mar 07:54:37 07:57:27 22° 289° (WNW) 08:00:18 437.300
KAITUO 1B 24 Mar 07:58:37 08:01:18 19° 289° (WNW) 08:04:00 145.475/437.950
XW-2C 24 Mar 08:01:58 08:04:06 15° 291° (WNW) 08:06:14 145.795 - 145.815
DOVE 4 24 Mar 08:02:14 08:06:00 20° 293° (WNW) 08:09:45 437.250
BEESAT 3 24 Mar 08:05:56 08:09:34 32° 56° (ENE) 08:13:11 437.485
CUBEBUG 2 24 Mar 08:11:01 08:14:34 24° 95° (E) 08:18:00 437.445
BEESAT 2 24 Mar 08:16:15 08:18:59 17° 52° (NE) 08:21:42 435.950
ZACube-1 24 Mar 08:31:20 08:33:05 12° 92° (E) 08:34:48 437.345
STRAND 1 24 Mar 08:42:44 08:46:14 18° 266° (W) 08:49:45 437.568
AAUSAT CUBESAT 2 24 Mar 08:46:01 08:49:58 43° 99° (E) 08:53:55 437.432
JUGNU 24 Mar 08:46:13 08:49:36 16° 168° (SSE) 08:53:00 437.505
XW-2A 24 Mar 08:48:00 08:50:50 25° 287° (WNW) 08:53:38 145.665 - 145.685
SEEDS 24 Mar 08:53:35 08:57:44 64° 284° (WNW) 09:01:52 437.485
CUTE 1.7 + AOD 2 24 Mar 08:55:39 08:59:32 37° 286° (WNW) 09:03:26 437.475
TIGRISAT 24 Mar 08:57:36 08:58:11 10° 65° (ENE) 08:58:47 435.000
AO-73 24 Mar 08:59:47 09:03:17 25° 96° (E) 09:06:44 145.935
PRISM 24 Mar 09:03:07 09:06:25 25° 71° (ENE) 09:09:44 437.425
UNISAT 6 24 Mar 09:04:58 09:07:25 14° 67° (ENE) 09:09:52 437.425
UWE-3 24 Mar 09:18:38 09:22:58 86° 282° (WNW) 09:27:09 435.000/436.395/437.385
HO-68 24 Mar 09:41:50 09:47:56 32° 295° (WNW) 09:54:03 435.675
YUBILEINY 24 Mar 09:43:49 09:51:04 29° 287° (WNW) 09:58:21 435.215
BEESAT 3 24 Mar 09:44:20 09:46:52 16° 251° (WSW) 09:49:23 437.485
CUBEBUG 2 24 Mar 09:47:32 09:51:03 23° 290° (WNW) 09:54:27 437.445
BEESAT 2 24 Mar 09:53:09 09:56:51 35° 247° (WSW) 10:00:30 435.950
Oscar 11 24 Mar 10:02:38 10:06:53 60° 284° (WNW) 10:11:06 .
ZACube-1 24 Mar 10:05:34 10:09:33 40° 286° (WNW) 10:13:26 437.345
PCSat 24 Mar 10:16:00 10:21:24 85° 114° (ESE) 10:26:50 145.827
FO-29 24 Mar 10:18:25 10:26:08 61° 73° (ENE) 10:33:34 435.910
AAUSAT CUBESAT 2 24 Mar 10:23:19 10:25:00 12° 293° (WNW) 10:26:41 437.432
DELFI C3 24 Mar 10:28:19 10:32:18 77° 101° (E) 10:36:17 145.870
TIGRISAT 24 Mar 10:29:33 10:34:14 70° 259° (W) 10:38:55 435.000
JUGNU 24 Mar 10:33:39 10:37:56 21° 178° (S) 10:42:14 437.505
AO-73 24 Mar 10:36:14 10:39:20 20° 290° (WNW) 10:42:23 145.935
PRISM 24 Mar 10:38:39 10:41:38 20° 264° (W) 10:44:37 437.425
UNISAT 6 24 Mar 10:39:06 10:43:39 50° 261° (W) 10:48:13 437.425
QB50P2 24 Mar 10:39:35 10:40:52 11° 66° (ENE) 10:42:11 145.880/145.840
SRMSAT 24 Mar 10:45:04 10:47:41 13° 165° (SSE) 10:50:20 437.500
RS-15 24 Mar 10:53:28 10:56:09 11° 95° (E) 10:58:50 29.354- 29.394
DUCHIFAT 1 24 Mar 10:54:58 10:56:55 13° 67° (ENE) 10:58:52 145.980
AIST 2D 24 Mar 11:09:11 11:12:29 37° 75° (ENE) 11:15:47 435.315
LO-87 24 Mar 11:14:59 11:18:04 25° 97° (E) 11:21:09 145.935 - 145.965
NANOSAT C BR1 24 Mar 11:37:14 11:41:19 46° 74° (ENE) 11:45:25 145.865
EO-79 24 Mar 11:40:06 11:44:17 56° 75° (ENE) 11:48:28 145.935-145.965
ESTCUBE 1 24 Mar 11:58:18 12:02:38 46° 100° (E) 12:06:58 437.505/2401.250
PCSat 24 Mar 12:03:07 12:05:28 13° 312° (NW) 12:07:49 145.827
FO-29 24 Mar 12:05:14 12:11:19 25° 266° (W) 12:17:20 435.910
POLYITAN 1 24 Mar 12:07:23 12:11:38 65° 259° (WSW) 12:15:55 437.675
QB50P2 24 Mar 12:12:00 12:16:10 52° 260° (W) 12:20:21 145.880/145.840
JUGNU 24 Mar 12:22:26 12:26:17 18° 189° (S) 12:30:09 437.505
50 SAT 24 Mar 12:25:10 12:26:39 12° 94° (E) 12:28:07 437.505
DUCHIFAT 1 24 Mar 12:28:06 12:32:09 44° 261° (W) 12:36:14 145.980
SRMSAT 24 Mar 12:31:56 12:36:11 20° 175° (S) 12:40:25 437.500
SPROUT 24 Mar 12:48:05 12:52:09 41° 99° (E) 12:56:10 437.525
LO-87 24 Mar 12:49:07 12:51:16 15° 290° (WNW) 12:53:25 145.935 - 145.965
BUGSAT 1 24 Mar 12:53:50 12:58:01 72° 259° (WSW) 13:02:16 437.445
RS-15 24 Mar 12:54:30 13:06:10 68° 112° (ESE) 13:18:19 29.354- 29.394
DX 1 24 Mar 13:06:49 13:10:40 29° 98° (E) 13:14:30 434.975-435.025
NANOSAT C BR1 24 Mar 13:15:48 13:17:13 11° 267° (W) 13:18:38 145.865
VELOX 1 24 Mar 13:21:22 13:25:48 67° 285° (WNW) 13:30:14 145.980
Gurwin Techsat 1B 24 Mar 13:36:07 13:41:09 46° 72° (ENE) 13:46:14 435.225
ESTCUBE 1 24 Mar 13:36:42 13:39:00 14° 293° (WNW) 13:41:19 437.505/2401.250
Oscar 19 24 Mar 13:40:44 13:45:51 86° 256° (WSW) 13:51:00 437.125/150
UKube-1 24 Mar 13:51:24 13:55:43 71° 101° (E) 14:00:01 .
50 SAT 24 Mar 13:56:41 13:59:43 28° 287° (WNW) 14:02:44 437.505
AO-7 24 Mar 14:03:22 14:09:17 22° 58° (ENE) 14:15:11 .
NO-84 24 Mar 14:07:33 14:08:09 10° 36° (NE) 14:08:46 435.350 FM
SO-50 24 Mar 14:14:38 14:17:32 16° 109° (ESE) 14:20:24 436.795
SRMSAT 24 Mar 14:20:30 14:24:42 20° 185° (S) 14:28:54 437.500
SPROUT 24 Mar 14:25:27 14:27:39 14° 293° (WNW) 14:29:51 437.525
BEESAT 24 Mar 14:40:05 14:42:48 15° 94° (E) 14:45:31 436.000
DX 1 24 Mar 14:43:26 14:46:37 20° 291° (WNW) 14:49:48 434.975-435.025
ITUPSAT 1 24 Mar 14:53:57 14:57:34 21° 96° (E) 15:01:09 437.325
RS-15 24 Mar 15:08:46 15:19:30 36° 314° (NW) 15:30:35 29.354- 29.394
MOZHAYETS 4 24 Mar 15:17:38 15:20:12 15° 93° (E) 15:22:45
Gurwin Techsat 1B 24 Mar 15:17:46 15:21:16 18° 266° (W) 15:24:48 435.225
ITAMSAT 1 24 Mar 15:22:23 15:27:37 82° 76° (ENE) 15:32:52 435.822/435.867
NO-84 24 Mar 15:42:37 15:46:00 78° 230° (SW) 15:49:43 435.350 FM
AO-7 24 Mar 15:52:52 16:01:11 75° 254° (WSW) 16:09:32 .
SO-50 24 Mar 15:53:10 15:57:37 44° 303° (WNW) 16:02:02 436.795
SRMSAT 24 Mar 16:10:43 16:13:11 13° 195° (SSW) 16:15:38 437.500
BEESAT 24 Mar 16:16:14 16:20:44 44° 288° (WNW) 16:25:14 436.000
ITUPSAT 1 24 Mar 16:31:11 16:35:22 32° 289° (WNW) 16:39:33 437.325
KKS-1 24 Mar 16:50:50 16:54:53 33° 98° (E) 16:58:54 437.445
MOZHAYETS 4 24 Mar 16:53:13 16:57:29 41° 287° (WNW) 17:01:45
O/OREOS (USA 219) 24 Mar 16:58:19 17:02:30 39° 104° (ESE) 17:06:45 437.305
CUTE-I 24 Mar 16:59:54 17:01:34 11° 62° (ENE) 17:03:15 437.470
DOVE 4 24 Mar 17:25:37 17:29:23 26° 69° (ENE) 17:33:20 437.250
RS-15 24 Mar 17:32:09 17:37:31 13° 347° (NNW) 17:42:53 29.354- 29.394
STARS 24 Mar 17:33:08 17:37:20 42° 99° (E) 17:41:30 437.465
CUBESAT XI-V 24 Mar 17:39:03 17:43:43 89° 288° (WNW) 17:48:23 437.345
AO-7 24 Mar 17:53:49 17:55:00 10° 269° (W) 17:56:10 .
LilacSat-2 24 Mar 17:54:44 17:58:19 38° 74° (ENE) 18:01:54 437.200
XW-2F 24 Mar 17:57:22 18:00:55 38° 74° (ENE) 18:04:26 145.980 - 146.000
YUBILEINY 24 Mar 18:01:52 18:07:59 21° 70° (ENE) 18:14:03 435.215
HO-68 24 Mar 18:19:39 18:24:48 22° 62° (ENE) 18:29:56 435.675
XW-2D 24 Mar 18:21:36 18:25:25 89° 244° (WSW) 18:29:15 145.860 - 145.880
XW-2B 24 Mar 18:27:29 18:31:18 77° 259° (WSW) 18:35:06 145.730 - 145.750
KKS-1 24 Mar 18:28:02 18:31:09 19° 292° (WNW) 18:34:16 437.445
NUDT-PHONESAT 24 Mar 18:29:00 18:32:45 88° 70° (ENE) 18:36:31 437.300
KAITUO 1B 24 Mar 18:33:32 18:37:18 80° 258° (WSW) 18:41:04 145.475/437.950
CUTE-I 24 Mar 18:35:31 18:40:52 79° 257° (WSW) 18:46:17 437.470
XW-2C 24 Mar 18:37:39 18:41:24 53° 260° (W) 18:45:08 145.795 - 145.815
M-CUBED/EXP-1 PRIME 24 Mar 18:38:04 18:42:11 31° 102° (ESE) 18:46:17 437.505
O/OREOS (USA 219) 24 Mar 18:39:12 18:42:03 16° 300° (WNW) 18:44:56 437.305
DOVE 4 24 Mar 19:03:13 19:06:56 25° 265° (W) 19:10:53 437.250
CUBEBUG 2 24 Mar 19:05:52 19:08:31 15° 67° (ENE) 19:11:09 437.445
PCSat 24 Mar 19:08:10 19:12:56 30° 57° (ENE) 19:17:39 145.827
STARS 24 Mar 19:10:52 19:13:16 15° 294° (WNW) 19:15:40 437.465
XW-2A 24 Mar 19:14:49 19:18:08 46° 75° (ENE) 19:21:28 145.665 - 145.685
STRAND 1 24 Mar 19:17:21 19:21:01 20° 95° (E) 19:24:39 437.568
LilacSat-2 24 Mar 19:31:43 19:32:43 11° 267° (W) 19:33:43 437.200
AAUSAT CUBESAT 2 24 Mar 19:33:14 19:35:57 17° 70° (ENE) 19:38:42 437.432
XW-2F 24 Mar 19:34:14 19:35:11 11° 267° (W) 19:36:07 145.980 - 146.000
SEEDS 24 Mar 19:41:03 19:45:03 49° 75° (ENE) 19:49:05 437.485
CUTE 1.7 + AOD 2 24 Mar 19:43:40 19:47:53 87° 78° (ENE) 19:52:06 437.475
RS-15 24 Mar 19:50:09 19:57:48 18° 26° (NNE) 20:05:17 29.354- 29.394
AO-73 24 Mar 19:52:19 19:54:46 14° 68° (ENE) 19:57:11 145.935
YUBILEINY 24 Mar 19:56:50 20:05:28 72° 268° (W) 20:14:07 435.215
Tancredo 1 24 Mar 20:04:45 20:06:33 14° 127° (SE) 20:08:21 437.200
HO-68 24 Mar 20:04:50 20:11:54 63° 258° (WSW) 20:18:59 435.675
UWE-3 24 Mar 20:10:56 20:15:24 46° 74° (ENE) 20:19:51 435.000/436.395/437.385
M-CUBED/EXP-1 PRIME 24 Mar 20:12:41 20:16:23 24° 295° (WNW) 20:20:07 437.505
CUBEBUG 2 24 Mar 20:40:04 20:44:39 48° 261° (W) 20:49:16 437.445
PCSat 24 Mar 20:51:31 20:56:14 31° 252° (WSW) 21:00:56 145.827
Oscar 11 24 Mar 20:53:03 20:57:18 60° 75° (ENE) 21:01:33 .
STRAND 1 24 Mar 20:55:33 21:00:16 39° 289° (WNW) 21:04:58 437.568
ZACube-1 24 Mar 20:56:19 21:00:54 88° 71° (ENE) 21:05:26 437.345
AAUSAT CUBESAT 2 24 Mar 21:07:37 21:11:10 29° 263° (W) 21:14:45 437.432
DELFI C3 24 Mar 21:10:24 21:13:34 24° 72° (ENE) 21:16:44 145.870
SEEDS 24 Mar 21:20:35 21:20:58 10° 268° (W) 21:21:20 437.485
AO-73 24 Mar 21:26:13 21:30:34 45° 261° (W) 21:34:55 145.935
ISS 24 Mar 21:29:58 21:33:09 55° 319° (NW) 21:36:23 437.550
AO-85 24 Mar 21:34:35 21:39:06 68° 299° (WNW) 21:43:19 145.980
Tancredo 1 24 Mar 21:39:29 21:42:25 36° 321° (NW) 21:45:24 437.200
UWE-3 24 Mar 21:49:35 21:52:00 14° 267° (W) 21:54:25 435.000/436.395/437.385
BEESAT 3 24 Mar 21:53:47 21:55:41 13° 108° (ESE) 21:57:37 437.485
RS-15 24 Mar 22:01:56 22:13:57 56° 54° (NE) 22:25:21 29.354- 29.394
PRISM 24 Mar 22:22:20 22:26:30 71° 102° (ESE) 22:30:38 437.425
TIGRISAT 24 Mar 22:25:32 22:29:28 31° 97° (E) 22:33:17 435.000
UNISAT 6 24 Mar 22:34:51 22:39:05 45° 99° (E) 22:43:13 437.425
